Regional Weather Roundup
Issued by NWS Newport/Morehead, NC

Current Version | Previous Version | Graphics & Text | Print | Product List | Glossary On
Versions: 1 2 3 4 5 6 7 8 9 10 11 12 13 14 15 16 17 18 19 20 21 22 23 24 25 26 27 28 29 30 31 32 33 34 35 36 37 38 39 40 41 42 43 44 45 46 47 48 49 50
000 ASUS42 KMHX 291012 RWRMHX WEATHER ROUNDUP FOR EASTERN NORTH CAROLINA NATIONAL WEATHER SERVICE NEWPORT/MOREHEAD CITY NC 600 AM EDT SUN MAR 29 2015 NOTE: "FAIR" INDICATES FEW OR NO CLOUDS BELOW 12,000 FEET WITH NO SIGNIFICANT WEATHER AND/OR OBSTRUCTIONS TO VISIBILITY NCZ015>017-031-032-045>047-102-103-291100- NORTH COAST CITY SKY/WX TMP DP RH WIND PRES REMARKS EDENTON CLEAR 27 17 67 N6 30.33R ELIZABETH CITY CLEAR 27 14 58 NW7 30.32R KITTY HAWK SUNNY 31 8 38 N10G17 30.28R MANTEO CLEAR 32 11 42 N14G24 30.30R $$ NCZ045>047-081-094-103-104-291100- CENTRAL COAST CITY SKY/WX TMP DP RH WIND PRES REMARKS FRISCO CLEAR 32 14 47 N8G21 30.29R SWANQUARTER N/A 27 N/A N/A NW2 30.30R $$ NCZ095-097-098-100-101-291100- SOUTHERN COAST CITY SKY/WX TMP DP RH WIND PRES REMARKS BEAUFORT CLEAR 31 17 56 N9 30.32R CEDAR ISLAND N/A 36 N/A N/A NW18G26 30.33S JACKSONVILLE CLEAR 29 19 66 N7 30.34R PINEY ISLAND SUNNY N/A N/A N/A N16G24 30.31R WILMINGTON CLEAR 29 20 69 N6 30.35R $$ NCZ011>013-027>030-043-044-078>080-089-090>093-098-291100- COASTAL PLAIN CITY SKY/WX TMP DP RH WIND PRES REMARKS AHOSKIE CLEAR 25 15 66 CALM 30.36R CLINTON CLEAR 30 16 56 CALM 30.37R ELIZABETHTOWN CLEAR 29 20 69 CALM 30.36R GOLDSBORO CLEAR 29 23 78 NW3 30.34R GREENVILLE CLEAR 30 18 59 NW3 30.35R HAVELOCK CLEAR 32 15 49 N12 30.34R KENANSVILLE CLEAR 29 16 57 CALM 30.36S KINSTON CLEAR 28 17 63 NW3 30.36R NEW BERN CLEAR 29 17 61 NW3 30.35R RICHLANDS CLEAR 27 18 69 CALM 30.35R ROCKY MOUNT CLEAR 28 13 53 NW7 30.36R WASHINGTON CLEAR 27 17 63 NW3 30.34R WHITEVILLE CLEAR 31 20 63 CALM 30.36R $$ AMZ130-135-150-152-154-156-158-170-250-252-270-ANZ085-086-088-633-658-670-291100- MARINE OBSERVATIONS STATION/POSITION TIME TEMP WIND PRES WAVE SWELL AIR SEA DIR/SP/G HT/PER HT/PER (UTC) (F) (DEG/KT/KT) (MB) (FT/S) (FT/S) CHESAPEAKE LIGHT 0900 32 330/ 23/ 26 1025.1 64 E VA BEACH 0950 35 54 320/ 23/ 31 1023.4 6/ 6 2/10 DUCK NOT AVBL 2 E DUCK 0911 42 N/A 5/ 6 10 NE DUCK NOT AVBL OREGON INLET NOT AVBL HATTERAS CG NOT AVBL CAPE LOOKOUT 1000 34 350/ 16/ 18 1026.1 BEAUFORT LAB NOT AVBL 27 SE WRIGHTSVLE NOT AVBL 5 SE WRIGHTSVLE 0900 39 56 20/ 23/ 27 1025.9 225 S CAPE HAT 0950 54 68 340/ 17/ 21 1021.5 9/ 8 41 SE CHARLESTON 0950 49 68 20/ 21/ 27 1024.7 5/ 5 2/10 $$

USA.gov is the U.S. government's official web portal to all federal, state and local government web resources and services.